DW7146 Weather Reports


Display with metric or nautical units.
time (UTC)temp
F
wind
direction
speed
MPH
gust
MPH
rain 1hr
in
rain 24hr
in
rain mn
in
humidity
%
barometer
mb
20260510044530 53 0 0.0 0.0 0.00 0.10 0.00 91 1003.2
20260510044007 53 0 0.0 0.0 0.00 0.10 0.00 91 1003.1
20260510043508 53 0 0.0 0.0 0.00 0.10 0.00 90 1003.0
20260510043007 53 0 0.0 0.0 0.00 0.10 0.00 90 1002.8
20260510042508 53 0 0.0 0.0 0.00 0.10 0.00 90 1002.8
20260510042008 53 0 0.0 0.0 0.00 0.10 0.00 90 1002.6
20260510041508 53 0 0.0 0.0 0.00 0.10 0.00 90 1002.5
20260510041007 53 0 0.0 0.0 0.00 0.10 0.00 90 1002.5
20260510040508 53 0 0.0 0.0 0.00 0.10 0.00 89 1002.6
20260510040010 53 0 0.0 0.0 0.00 0.10 0.00 89 1002.4
20260510035508 54 0 0.0 0.0 0.00 0.10 0.10 88 1002.0
20260510035007 54 0 0.0 0.0 0.00 0.10 0.10 88 1002.4
20260510034508 54 0 0.0 0.0 0.00 0.10 0.10 87 1002.4
20260510034007 54 0 0.0 0.0 0.00 0.10 0.10 87 1002.5
20260510033507 54 0 0.0 0.0 0.02 0.10 0.10 87 1002.4
20260510033029 54 0 0.0 0.0 0.02 0.10 0.10 86 1002.6
20260510032529 54 0 0.0 0.0 0.03 0.10 0.10 86 1002.6
20260510032008 54 0 0.0 0.0 0.05 0.10 0.10 85 1002.5
20260510031507 54 0 0.0 0.0 0.07 0.10 0.10 84 1002.6
20260510031008 54 0 0.0 0.0 0.07 0.10 0.10 84 1002.6
20260510030507 54 0 0.0 0.0 0.10 0.10 0.10 83 1002.6
20260510030008 54 0 0.0 0.0 0.10 0.10 0.10 82 1002.4
20260510025507 54 0 0.0 0.0 0.10 0.10 0.10 80 1002.5
20260510025008 54 0 0.0 0.0 0.10 0.10 0.10 79 1002.4
20260510024508 54 0 0.0 0.0 0.10 0.10 0.10 78 1002.2
20260510024008 55 0 0.0 0.0 0.10 0.10 0.10 75 1002.3
20260510023508 55 0 0.0 0.0 0.08 0.08 0.08 73 1002.4
20260510023008 55 0 0.0 0.0 0.08 0.08 0.08 70 1002.3
20260510022507 56 0 0.0 0.0 0.07 0.07 0.07 66 1002.4
20260510022007 56 0 0.0 0.0 0.05 0.05 0.05 64 1002.4
20260510021529 56 0 0.0 0.0 0.03 0.03 0.03 61 1002.1
20260510021008 58 0 0.0 0.0 0.03 0.03 0.03 57 1002.0
20260510020508 58 0 0.0 0.0 0.00 0.00 0.00 54 1001.9
20260510020008 59 0 0.0 0.0 0.00 0.00 0.00 52 1001.7
20260510015508 59 0 0.0 0.0 0.00 0.00 0.00 50 1001.7
20260510015030 59 0 0.0 0.0 0.00 0.00 0.00 49 1001.7
20260510014508 59 0 0.0 0.0 0.00 0.00 0.00 48 1001.6
20260510014008 59 0 0.0 0.0 0.00 0.00 0.00 46 1001.7
20260510013507 59 0 0.0 0.0 0.00 0.00 0.00 46 1001.7
20260510013007 60 0 0.0 0.0 0.00 0.00 0.00 44 1002.0
20260510012509 60 0 0.0 0.0 0.00 0.00 0.00 43 1002.0
20260510012007 60 0 0.0 0.0 0.00 0.00 0.00 43 1002.0
20260510011507 60 0 0.0 0.0 0.00 0.00 0.00 41 1002.0
20260510011008 60 0 0.0 0.0 0.00 0.00 0.00 40 1001.8
20260510010507 60 0 0.0 0.0 0.00 0.00 0.00 39 1001.9
20260510010029 60 0 0.0 0.0 0.00 0.00 0.00 38 1002.0
20260510005507 60 0 0.0 0.0 0.00 0.00 0.00 37 1002.0
20260510005008 60 0 0.0 0.0 0.00 0.00 0.00 37 1001.9
20260510004528 60 0 0.0 0.0 0.00 0.00 0.00 36 1001.9
20260510004008 61 225 0.0 1.0 0.00 0.00 0.00 35 1002.0
20260510003528 61 0 0.0 0.0 0.00 0.00 0.00 35 1002.0
20260510003007 61 0 0.0 0.0 0.00 0.00 0.00 34 1002.0
20260510002507 61 0 0.0 0.0 0.00 0.00 0.00 34 1002.0
20260510002007 61 0 0.0 0.0 0.00 0.00 0.00 33 1002.1
20260510001509 61 0 0.0 0.0 0.00 0.00 0.00 33 1002.2
20260510001008 62 0 0.0 0.0 0.00 0.00 0.00 33 1002.1
20260510000507 62 0 0.0 0.0 0.00 0.00 0.00 32 1002.3
20260510000028 62 0 0.0 0.0 0.00 0.00 0.00 31 1002.2
20260509235507 62 0 0.0 0.0 0.00 0.00 0.00 29 1002.5
20260509235007 62 0 0.0 0.0 0.00 0.00 0.00 28 1002.5
20260509234508 62 0 0.0 0.0 0.00 0.00 0.00 27 1002.5
20260509234029 62 0 0.0 0.0 0.00 0.00 0.00 26 1002.7
20260509233528 62 0 0.0 0.0 0.00 0.00 0.00 25 1002.8
20260509233008 62 225 0.0 1.0 0.00 0.00 0.00 26 1002.8
20260509232508 62 0 0.0 0.0 0.00 0.00 0.00 26 1002.9
20260509232008 63 0 0.0 0.0 0.00 0.00 0.00 27 1002.9
20260509231508 63 0 0.0 0.0 0.00 0.00 0.00 29 1002.9
20260509231028 63 0 0.0 0.0 0.00 0.00 0.00 30 1003.0
20260509230529 63 0 0.0 0.0 0.00 0.00 0.00 30 1003.0
20260509230029 63 0 0.0 0.0 0.00 0.00 0.00 29 1003.0
20260509225509 64 225 0.0 1.0 0.00 0.00 0.00 27 1003.1
20260509225007 64 0 0.0 0.0 0.00 0.00 0.00 29 1002.9
20260509224508 64 0 0.0 0.0 0.00 0.00 0.00 28 1002.8
20260509224007 64 0 0.0 0.0 0.00 0.00 0.00 27 1002.7
20260509223508 64 0 0.0 0.0 0.00 0.00 0.00 26 1002.7
20260509223007 64 0 0.0 0.0 0.00 0.00 0.00 26 1002.6
20260509222507 64 0 0.0 0.0 0.00 0.00 0.00 26 1002.6
20260509222007 64 0 0.0 0.0 0.00 0.00 0.00 25 1002.4
20260509221507 65 0 0.0 0.0 0.00 0.00 0.00 24 1002.5
20260509221007 65 0 0.0 0.0 0.00 0.00 0.00 24 1002.5
20260509220507 65 0 0.0 0.0 0.00 0.00 0.00 24 1002.5
20260509220008 65 0 0.0 0.0 0.00 0.00 0.00 23 1002.4
20260509215507 65 0 0.0 0.0 0.00 0.00 0.00 22 1002.3
20260509215007 65 0 0.0 0.0 0.00 0.00 0.00 23 1002.3
20260509214529 66 0 0.0 0.0 0.00 0.00 0.00 21 1002.3
20260509214007 66 0 0.0 0.0 0.00 0.00 0.00 20 1002.5
20260509213507 66 0 0.0 0.0 0.00 0.00 0.00 21 1002.7
20260509213008 67 0 0.0 0.0 0.00 0.00 0.00 20 1002.7
20260509212507 67 0 0.0 0.0 0.00 0.00 0.00 19 1002.6
20260509212007 68 0 0.0 0.0 0.00 0.00 0.00 19 1002.7
20260509211529 68 0 0.0 0.0 0.00 0.00 0.00 20 1002.7
20260509211008 68 0 0.0 0.0 0.00 0.00 0.00 20 1002.8
20260509210507 67 0 0.0 0.0 0.00 0.00 0.00 21 1002.6
20260509210008 67 0 0.0 0.0 0.00 0.00 0.00 21 1002.7
20260509205508 67 0 0.0 0.0 0.00 0.00 0.00 21 1002.5
20260509205008 67 0 0.0 0.0 0.00 0.00 0.00 20 1002.7
20260509204508 67 0 0.0 0.0 0.00 0.00 0.00 19 1002.7
20260509204007 67 0 0.0 0.0 0.00 0.00 0.00 18 1002.6
20260509203508 67 0 0.0 0.0 0.00 0.00 0.00 18 1002.8
20260509203007 68 0 0.0 0.0 0.00 0.00 0.00 16 1002.9
20260509202507 69 0 0.0 0.0 0.00 0.00 0.00 14 1002.9
20260509202007 69 0 0.0 0.0 0.00 0.00 0.00 14 1002.9
20260509201528 69 0 0.0 0.0 0.00 0.00 0.00 13 1003.0
20260509201007 69 0 0.0 0.0 0.00 0.00 0.00 12 1002.8
20260509200528 69 0 0.0 0.0 0.00 0.00 0.00 11 1003.0
20260509200008 69 0 0.0 0.0 0.00 0.00 0.00 11 1003.0
20260509195507 68 0 0.0 0.0 0.00 0.00 0.00 10 1003.0
20260509195028 68 0 0.0 0.0 0.00 0.00 0.00 10 1003.2
20260509194528 69 0 0.0 0.0 0.00 0.00 0.00 10 1003.1
20260509194007 69 0 0.0 0.0 0.00 0.00 0.00 10 1003.2
20260509193508 69 0 0.0 0.0 0.00 0.00 0.00 10 1003.2
20260509193007 69 0 0.0 0.0 0.00 0.00 0.00 11 1003.3
20260509192507 68 0 0.0 0.0 0.00 0.00 0.00 11 1003.3
20260509192007 69 0 0.0 0.0 0.00 0.00 0.00 10 1003.5
20260509191528 69 0 0.0 0.0 0.00 0.00 0.00 10 1003.4
20260509191008 69 0 0.0 0.0 0.00 0.00 0.00 10 1003.6
20260509190507 69 0 0.0 0.0 0.00 0.00 0.00 10 1003.5
20260509190007 69 0 0.0 0.0 0.00 0.00 0.00 10 1003.6
20260509185528 69 0 0.0 0.0 0.00 0.00 0.00 10 1003.7
20260509185028 69 0 0.0 0.0 0.00 0.00 0.00 10 1003.9
20260509184507 69 0 0.0 0.0 0.00 0.00 0.00 10 1003.7
20260509184007 69 0 0.0 0.0 0.00 0.00 0.00 10 1003.9
20260509183507 69 0 0.0 0.0 0.00 0.00 0.00 10 1004.0
20260509183007 69 0 0.0 0.0 0.00 0.00 0.00 10 1004.0
20260509182508 69 0 0.0 0.0 0.00 0.00 0.00 10 1004.3
20260509182007 69 0 0.0 0.0 0.00 0.00 0.00 10 1004.3
20260509181507 69 0 0.0 0.0 0.00 0.00 0.00 10 1004.4
20260509181007 69 0 0.0 0.0 0.00 0.00 0.00 10 1004.7
20260509180508 69 0 0.0 0.0 0.00 0.00 0.00 10 1004.8
20260509180029 69 0 0.0 0.0 0.00 0.00 0.00 10 1004.5
20260509175507 69 0 0.0 0.0 0.00 0.00 0.00 10 1004.6
20260509175007 69 0 0.0 0.0 0.00 0.00 0.00 10 1004.9
20260509174507 69 0 0.0 0.0 0.00 0.00 0.00 10 1004.9
20260509174008 69 0 0.0 0.0 0.00 0.00 0.00 10 1005.0
20260509173507 69 0 0.0 0.0 0.00 0.00 0.00 10 1005.0
20260509173007 69 0 0.0 0.0 0.00 0.00 0.00 10 1005.0
20260509172507 69 0 0.0 0.0 0.00 0.00 0.00 10 1004.8
20260509172007 69 0 0.0 0.0 0.00 0.00 0.00 10 1004.8
20260509171509 69 0 0.0 0.0 0.00 0.00 0.00 10 1005.0
20260509171028 69 0 0.0 0.0 0.00 0.00 0.00 10 1005.3
20260509170507 69 0 0.0 0.0 0.00 0.00 0.00 10 1005.4
20260509170008 69 0 0.0 0.0 0.00 0.00 0.00 10 1005.4
20260509165507 69 0 0.0 0.0 0.00 0.00 0.00 10 1005.7
20260509165007 69 0 0.0 0.0 0.00 0.00 0.00 10 1005.6
20260509164508 68 0 0.0 0.0 0.00 0.00 0.00 10 1005.7
20260509164028 69 0 0.0 0.0 0.00 0.00 0.00 10 1005.9
20260509163507 69 0 0.0 0.0 0.00 0.00 0.00 10 1006.0
20260509163007 68 0 0.0 0.0 0.00 0.00 0.00 10 1006.0
20260509162507 68 0 0.0 0.0 0.00 0.00 0.00 10 1006.1
20260509162007 68 0 0.0 0.0 0.00 0.00 0.00 10 1006.4
20260509161528 68 0 0.0 0.0 0.00 0.00 0.00 11 1006.2
20260509161008 68 0 0.0 0.0 0.00 0.00 0.00 12 1006.3
20260509160507 67 0 0.0 0.0 0.00 0.00 0.00 11 1006.5
20260509160007 67 0 0.0 0.0 0.00 0.00 0.00 10 1006.4
20260509155507 68 0 0.0 0.0 0.00 0.00 0.00 11 1006.6
20260509155007 68 0 0.0 0.0 0.00 0.00 0.00 14 1006.6
20260509154529 67 0 0.0 0.0 0.00 0.00 0.00 13 1006.7
20260509154007 67 0 0.0 0.0 0.00 0.00 0.00 14 1006.8
20260509153507 66 0 0.0 0.0 0.00 0.00 0.00 15 1007.0
20260509153007 66 0 0.0 0.0 0.00 0.00 0.00 15 1007.2
20260509152507 65 0 0.0 0.0 0.00 0.00 0.00 18 1007.2
20260509152007 65 0 0.0 0.0 0.00 0.00 0.00 18 1007.3
20260509151507 65 0 0.0 0.0 0.00 0.00 0.00 19 1007.4
20260509151007 65 0 0.0 0.0 0.00 0.00 0.00 19 1007.4
20260509150507 64 0 0.0 0.0 0.00 0.00 0.00 19 1007.6
20260509150007 64 0 0.0 0.0 0.00 0.00 0.00 19 1007.5
20260509145528 64 0 0.0 0.0 0.00 0.00 0.00 18 1007.7
20260509145029 64 0 0.0 0.0 0.00 0.00 0.00 21 1007.5
20260509144507 63 0 0.0 0.0 0.00 0.00 0.00 24 1007.6
20260509144007 63 0 0.0 0.0 0.00 0.00 0.00 24 1007.6
20260509143507 63 0 0.0 0.0 0.00 0.00 0.00 25 1007.6
20260509143007 62 0 0.0 0.0 0.00 0.00 0.00 27 1007.7
20260509142507 62 0 0.0 0.0 0.00 0.00 0.00 27 1007.8
20260509142007 61 0 0.0 0.0 0.00 0.00 0.00 27 1007.7
20260509141528 61 0 0.0 0.0 0.00 0.00 0.00 28 1008.0
20260509141007 60 0 0.0 0.0 0.00 0.00 0.00 28 1007.9
20260509140508 60 0 0.0 0.0 0.00 0.00 0.00 31 1008.0
20260509140008 60 0 0.0 0.0 0.00 0.00 0.00 32 1008.1
20260509135507 59 0 0.0 0.0 0.00 0.00 0.00 32 1008.1
20260509135007 58 0 0.0 0.0 0.00 0.00 0.00 35 1008.1
20260509134507 57 0 0.0 0.0 0.00 0.00 0.00 35 1008.1
20260509134007 56 0 0.0 0.0 0.00 0.00 0.00 36 1008.3
20260509133507 56 0 0.0 0.0 0.00 0.00 0.00 37 1008.3
20260509133028 55 0 0.0 0.0 0.00 0.00 0.00 40 1008.4
20260509132528 54 0 0.0 0.0 0.00 0.00 0.00 41 1008.4
20260509132007 53 0 0.0 0.0 0.00 0.00 0.00 42 1008.5
20260509131507 52 0 0.0 0.0 0.00 0.00 0.00 43 1008.6
20260509131007 51 0 0.0 0.0 0.00 0.00 0.00 44 1008.6
20260509130507 51 0 0.0 0.0 0.00 0.00 0.00 45 1008.7
20260509130007 50 0 0.0 0.0 0.00 0.00 0.00 46 1008.8
20260509125507 49 0 0.0 0.0 0.00 0.00 0.00 48 1008.9
20260509125007 49 0 0.0 0.0 0.00 0.00 0.00 49 1008.9
20260509124528 48 0 0.0 0.0 0.00 0.00 0.00 51 1008.8
20260509124007 47 0 0.0 0.0 0.00 0.00 0.00 51 1008.7
20260509123507 47 0 0.0 0.0 0.00 0.00 0.00 53 1008.8
20260509123007 46 0 0.0 0.0 0.00 0.00 0.00 54 1008.8
20260509122508 45 0 0.0 0.0 0.00 0.00 0.00 55 1008.9
20260509122007 45 0 0.0 0.0 0.00 0.00 0.00 56 1008.9
20260509121507 44 0 0.0 0.0 0.00 0.00 0.00 56 1009.0
20260509121029 44 0 0.0 0.0 0.00 0.00 0.00 57 1009.0
20260509120507 43 0 0.0 0.0 0.00 0.00 0.00 58 1008.9
20260509120007 43 0 0.0 0.0 0.00 0.00 0.00 58 1008.9
20260509115508 43 0 0.0 0.0 0.00 0.00 0.00 59 1008.9
20260509115028 42 0 0.0 0.0 0.00 0.00 0.00 60 1009.0
20260509114508 42 0 0.0 0.0 0.00 0.00 0.00 61 1008.8
20260509114007 42 0 0.0 0.0 0.00 0.00 0.00 62 1008.8
20260509113508 42 0 0.0 0.0 0.00 0.00 0.00 63 1008.8
20260509113007 41 0 0.0 0.0 0.00 0.00 0.00 64 1008.8
20260509112508 41 0 0.0 0.0 0.00 0.00 0.00 65 1008.9
20260509112007 41 0 0.0 0.0 0.00 0.00 0.00 65 1008.7
20260509111528 41 0 0.0 0.0 0.00 0.00 0.00 66 1008.8
20260509111007 40 0 0.0 0.0 0.00 0.00 0.00 66 1008.9
20260509110507 40 0 0.0 0.0 0.00 0.00 0.00 66 1008.6
20260509110008 40 0 0.0 0.0 0.00 0.00 0.00 67 1008.7
20260509105508 40 0 0.0 0.0 0.00 0.00 0.00 67 1008.7
20260509105008 40 0 0.0 0.0 0.00 0.00 0.00 68 1008.7
20260509104508 39 0 0.0 0.0 0.00 0.00 0.00 68 1008.4
20260509104008 39 0 0.0 0.0 0.00 0.00 0.00 68 1008.4
20260509103507 39 0 0.0 0.0 0.00 0.00 0.00 69 1008.4
20260509103007 38 0 0.0 0.0 0.00 0.00 0.00 69 1008.5
20260509102507 38 0 0.0 0.0 0.00 0.00 0.00 68 1008.5
20260509102007 38 0 0.0 0.0 0.00 0.00 0.00 68 1008.5
20260509101507 38 0 0.0 0.0 0.00 0.00 0.00 67 1008.5
20260509101007 37 0 0.0 0.0 0.00 0.00 0.00 66 1008.5
20260509100528 37 0 0.0 0.0 0.00 0.00 0.00 66 1008.6
20260509100028 37 0 0.0 0.0 0.00 0.00 0.00 66 1008.5
20260509095508 37 0 0.0 0.0 0.00 0.00 0.00 65 1008.5
20260509095007 38 0 0.0 0.0 0.00 0.00 0.00 65 1008.4
20260509094507 38 0 0.0 0.0 0.00 0.00 0.00 64 1008.5
20260509094007 38 0 0.0 0.0 0.00 0.00 0.00 64 1008.5
20260509093507 38 0 0.0 0.0 0.00 0.00 0.00 64 1008.4
20260509093007 38 0 0.0 0.0 0.00 0.00 0.00 63 1008.5
20260509092507 38 0 0.0 0.0 0.00 0.00 0.00 63 1008.5
20260509092007 38 0 0.0 0.0 0.00 0.00 0.00 63 1008.5
20260509091528 38 0 0.0 0.0 0.00 0.00 0.00 62 1008.3
20260509091028 39 0 0.0 0.0 0.00 0.00 0.00 62 1008.4
20260509090507 39 0 0.0 0.0 0.00 0.00 0.00 62 1008.3
20260509090008 39 0 0.0 0.0 0.00 0.00 0.00 62 1008.4
20260509085528 39 0 0.0 0.0 0.00 0.00 0.00 61 1008.5
20260509085007 39 0 0.0 0.0 0.00 0.00 0.00 61 1008.4
20260509084507 39 0 0.0 0.0 0.00 0.00 0.00 61 1008.3
20260509084028 39 0 0.0 0.0 0.00 0.00 0.00 60 1008.4
20260509083507 39 0 0.0 0.0 0.00 0.00 0.00 60 1008.4
20260509083028 39 0 0.0 0.0 0.00 0.00 0.00 60 1008.4
20260509082528 40 0 0.0 0.0 0.00 0.00 0.00 60 1008.4
20260509082007 40 0 0.0 0.0 0.00 0.00 0.00 59 1008.5
20260509081528 40 0 0.0 0.0 0.00 0.00 0.00 59 1008.4
20260509081007 40 0 0.0 0.0 0.00 0.00 0.00 59 1008.4
20260509080507 40 0 0.0 0.0 0.00 0.00 0.00 58 1008.5
20260509080008 40 0 0.0 0.0 0.00 0.00 0.00 58 1008.7
20260509075507 40 0 0.0 0.0 0.00 0.00 0.00 58 1008.7
20260509075007 40 0 0.0 0.0 0.00 0.00 0.00 57 1008.6
20260509074507 40 0 0.0 0.0 0.00 0.00 0.00 57 1008.6
20260509074028 40 0 0.0 0.0 0.00 0.00 0.00 57 1008.6
20260509073508 41 0 0.0 0.0 0.00 0.00 0.00 56 1008.7
20260509073007 41 0 0.0 0.0 0.00 0.00 0.00 56 1008.6
20260509072528 41 0 0.0 0.0 0.00 0.00 0.00 56 1008.4
20260509072028 41 0 0.0 0.0 0.00 0.00 0.00 55 1008.6
20260509071508 41 0 0.0 0.0 0.00 0.00 0.00 55 1008.6
20260509071007 41 0 0.0 0.0 0.00 0.00 0.00 54 1008.6
20260509070507 41 0 0.0 0.0 0.00 0.00 0.00 53 1008.6
20260509070007 41 0 0.0 0.0 0.00 0.00 0.00 53 1008.7
20260509065528 42 0 0.0 0.0 0.00 0.00 0.00 52 1008.6
20260509065007 42 0 0.0 0.0 0.00 0.00 0.00 51 1008.6
20260509064507 42 0 0.0 0.0 0.00 0.00 0.00 51 1008.8
20260509064007 42 0 0.0 0.0 0.00 0.00 0.00 50 1008.6
20260509063507 42 0 0.0 0.0 0.00 0.00 0.00 50 1008.7
20260509063008 43 0 0.0 0.0 0.00 0.00 0.00 49 1008.7
20260509062507 43 0 0.0 0.0 0.00 0.00 0.00 48 1008.7
20260509062028 43 0 0.0 0.0 0.00 0.00 0.00 48 1008.8
20260509061507 43 0 0.0 0.0 0.00 0.00 0.00 47 1008.9
20260509061007 44 0 0.0 0.0 0.00 0.00 0.00 47 1008.9
20260509060507 44 0 0.0 0.0 0.00 0.00 0.00 46 1008.8
20260509060007 44 0 0.0 0.0 0.00 0.00 0.00 45 1008.9
20260509055529 44 0 0.0 0.0 0.00 0.00 0.00 45 1008.9
20260509055007 45 0 0.0 0.0 0.00 0.00 0.00 44 1008.8
20260509054507 45 0 0.0 0.0 0.00 0.00 0.00 44 1008.9
20260509054007 45 0 0.0 0.0 0.00 0.00 0.00 44 1009.0
20260509053507 45 0 0.0 0.0 0.00 0.00 0.00 44 1008.9
20260509053007 45 0 0.0 0.0 0.00 0.00 0.00 44 1008.9
20260509052507 45 0 0.0 0.0 0.00 0.00 0.00 44 1008.9
20260509052028 46 0 0.0 0.0 0.00 0.00 0.00 44 1009.0
20260509051528 46 0 0.0 0.0 0.00 0.00 0.00 44 1009.1
20260509051007 46 0 0.0 0.0 0.00 0.00 0.00 44 1009.1
20260509050507 46 0 0.0 0.0 0.00 0.00 0.00 43 1009.2
20260509050007 46 0 0.0 0.0 0.00 0.00 0.00 43 1009.1
20260509045506 46 0 0.0 0.0 0.00 0.00 0.00 43 1009.1
20260509045007 47 0 0.0 0.0 0.00 0.00 0.00 42 1009.2